• en France
  • Liste des pays
  • À 7 jours
  • Température de l'eau
  • Carte satellitaire
  • Carte météo
  • Widgets météo
  • user-avatar
    Se connecter

    Météo par heure à Catanih

    Ce jour, 19 Août, Dimanche

    Heure Température Précipitation Vent Pression Humidité
    00:00 +12°C° 0,4 mm 2 m/s 614 mmHg 80%
    01:00 +12°C° 0,1 mm 2 m/s 614 mmHg 79%
    02:00 +10°C° 0,1 mm 2 m/s 614 mmHg 78%
    03:00 +10°C° 0,1 mm 2 m/s 614 mmHg 77%
    04:00 +10°C° 0,1 mm 2 m/s 614 mmHg 76%
    05:00 +10°C° 0,1 mm 2 m/s 614 mmHg 74%
    06:00 +12°C° 0,1 mm 2 m/s 614 mmHg 72%
    07:00 +13°C° 0 mm 2 m/s 615 mmHg 66%
    08:00 +15°C° 0 mm 2 m/s 616 mmHg 59%
    09:00 +16°C° 0 mm 2 m/s 617 mmHg 52%
    10:00 +17°C° 0 mm 3 m/s 617 mmHg 51%
    11:00 +18°C° 0 mm 3 m/s 617 mmHg 50%
    12:00 +18°C° 0 mm 3 m/s 617 mmHg 49%
    13:00 +18°C° 0,3 mm 3 m/s 617 mmHg 53%
    14:00 +17°C° 0,3 mm 3 m/s 617 mmHg 58%
    15:00 +16°C° 0,3 mm 3 m/s 616 mmHg 62%
    16:00 +14°C° 0,3 mm 3 m/s 616 mmHg 67%
    17:00 +14°C° 0,3 mm 2 m/s 616 mmHg 72%
    18:00 +13°C° 0,3 mm 2 m/s 616 mmHg 77%
    19:00 +12°C° 0,1 mm 2 m/s 616 mmHg 80%
    20:00 +12°C° 0,1 mm 1 m/s 616 mmHg 84%
    21:00 +11°C° 0,1 mm 1 m/s 616 mmHg 88%
    22:00 +10°C° 0 mm 1 m/s 616 mmHg 88%
    23:00 +10°C° 0 mm 1 m/s 616 mmHg 88%

    Demain, 20 Août, Lundi

    Heure Température Précipitation Vent Pression Humidité
    00:00 +8°C° 0 mm 0 m/s 616 mmHg 88%
    01:00 +9°C° 0 mm 1 m/s 615 mmHg 88%
    02:00 +9°C° 0 mm 1 m/s 615 mmHg 87%
    03:00 +8°C° 0 mm 1 m/s 615 mmHg 86%
    04:00 +9°C° 0 mm 1 m/s 616 mmHg 84%
    05:00 +9°C° 0 mm 1 m/s 616 mmHg 83%
    06:00 +9°C° 0 mm 1 m/s 616 mmHg 81%
    07:00 +11°C° 0 mm 1 m/s 617 mmHg 73%
    08:00 +13°C° 0 mm 2 m/s 618 mmHg 64%
    09:00 +15°C° 0 mm 2 m/s 619 mmHg 56%
    10:00 +16°C° 0 mm 2 m/s 619 mmHg 53%
    11:00 +17°C° 0 mm 3 m/s 620 mmHg 50%
    12:00 +19°C° 0 mm 3 m/s 620 mmHg 47%
    13:00 +18°C° 0 mm 3 m/s 620 mmHg 48%
    14:00 +18°C° 0 mm 3 m/s 620 mmHg 50%
    15:00 +18°C° 0 mm 3 m/s 619 mmHg 51%
    16:00 +17°C° 0 mm 3 m/s 619 mmHg 55%
    17:00 +16°C° 0 mm 3 m/s 618 mmHg 59%
    18:00 +14°C° 0 mm 3 m/s 618 mmHg 63%
    19:00 +14°C° 0 mm 2 m/s 618 mmHg 66%
    20:00 +12°C° 0 mm 2 m/s 617 mmHg 69%
    21:00 +10°C° 0 mm 2 m/s 617 mmHg 72%
    22:00 +10°C° 0 mm 2 m/s 617 mmHg 71%
    23:00 +10°C° 0 mm 2 m/s 617 mmHg 70%

    Après-demain, 21 Août, Mardi

    Heure Température Précipitation Vent Pression Humidité
    00:00 +10°C° 0 mm 2 m/s 616 mmHg 68%
    01:00 +9°C° 0 mm 2 m/s 616 mmHg 68%
    02:00 +9°C° 0 mm 2 m/s 616 mmHg 67%
    03:00 +9°C° 0 mm 2 m/s 616 mmHg 66%
    04:00 +10°C° 0 mm 2 m/s 616 mmHg 66%
    05:00 +10°C° 0 mm 2 m/s 616 mmHg 66%
    06:00 +12°C° 0 mm 2 m/s 616 mmHg 66%
    07:00 +14°C° 0 mm 2 m/s 617 mmHg 61%
    08:00 +16°C° 0 mm 2 m/s 618 mmHg 56%
    09:00 +17°C° 0 mm 2 m/s 618 mmHg 51%
    10:00 +19°C° 0 mm 2 m/s 619 mmHg 49%
    11:00 +20°C° 0 mm 2 m/s 619 mmHg 47%
    12:00 +21°C° 0 mm 3 m/s 619 mmHg 45%
    13:00 +21°C° 0,3 mm 3 m/s 619 mmHg 47%
    14:00 +20°C° 0,3 mm 3 m/s 618 mmHg 49%
    15:00 +20°C° 0,3 mm 3 m/s 618 mmHg 51%
    16:00 +19°C° 0,2 mm 3 m/s 618 mmHg 56%
    17:00 +18°C° 0,2 mm 2 m/s 617 mmHg 62%
    18:00 +17°C° 0,2 mm 2 m/s 617 mmHg 68%
    19:00 +16°C° 0,4 mm 2 m/s 617 mmHg 71%
    20:00 +14°C° 0,4 mm 2 m/s 616 mmHg 75%
    21:00 +13°C° 0,4 mm 2 m/s 616 mmHg 79%
    22:00 +13°C° 0 mm 2 m/s 616 mmHg 78%
    23:00 +13°C° 0 mm 2 m/s 616 mmHg 77%

    22 Août, Mercredi

    Heure Température Précipitation Vent Pression Humidité
    00:00 +12°C° 0 mm 2 m/s 616 mmHg 76%
    01:00 +12°C° 0 mm 2 m/s 616 mmHg 74%
    02:00 +12°C° 0 mm 1 m/s 615 mmHg 73%
    03:00 +12°C° 0 mm 1 m/s 615 mmHg 72%
    04:00 +12°C° 0 mm 1 m/s 615 mmHg 71%
    05:00 +12°C° 0 mm 1 m/s 616 mmHg 70%
    06:00 +13°C° 0 mm 1 m/s 616 mmHg 68%
    07:00 +15°C° 0 mm 1 m/s 617 mmHg 63%
    08:00 +18°C° 0 mm 1 m/s 618 mmHg 58%
    09:00 +20°C° 0 mm 1 m/s 618 mmHg 52%
    10:00 +20°C° 0 mm 2 m/s 619 mmHg 51%
    11:00 +21°C° 0 mm 2 m/s 619 mmHg 49%
    12:00 +21°C° 0 mm 2 m/s 619 mmHg 47%
    13:00 +21°C° 0,3 mm 2 m/s 619 mmHg 49%
    14:00 +21°C° 0,3 mm 2 m/s 618 mmHg 50%
    15:00 +21°C° 0,3 mm 2 m/s 618 mmHg 51%
    16:00 +20°C° 0,2 mm 2 m/s 618 mmHg 55%
    17:00 +19°C° 0,2 mm 2 m/s 618 mmHg 59%
    18:00 +19°C° 0,2 mm 1 m/s 618 mmHg 64%
    19:00 +18°C° 0,1 mm 1 m/s 617 mmHg 68%
    20:00 +16°C° 0,1 mm 1 m/s 617 mmHg 72%
    21:00 +14°C° 0,1 mm 1 m/s 617 mmHg 76%
    22:00 +14°C° 0,1 mm 1 m/s 617 mmHg 76%
    23:00 +14°C° 0,1 mm 1 m/s 617 mmHg 76%

    23 Août, Jeudi

    Heure Température Précipitation Vent Pression Humidité
    00:00 +13°C° 0,1 mm 1 m/s 617 mmHg 76%
    01:00 +13°C° 0,1 mm 1 m/s 617 mmHg 76%
    02:00 +13°C° 0,1 mm 1 m/s 617 mmHg 76%
    03:00 +13°C° 0,1 mm 1 m/s 616 mmHg 76%
    04:00 +13°C° 0 mm 1 m/s 617 mmHg 75%
    05:00 +13°C° 0 mm 1 m/s 617 mmHg 75%
    06:00 +13°C° 0 mm 1 m/s 617 mmHg 75%
    07:00 +15°C° 0 mm 1 m/s 618 mmHg 68%
    08:00 +18°C° 0 mm 1 m/s 619 mmHg 62%
    09:00 +19°C° 0 mm 2 m/s 620 mmHg 56%
    10:00 +19°C° 0,1 mm 2 m/s 620 mmHg 54%
    11:00 +20°C° 0,1 mm 2 m/s 620 mmHg 53%
    12:00 +20°C° 0,1 mm 3 m/s 620 mmHg 51%
    13:00 +20°C° 0,4 mm 3 m/s 620 mmHg 51%
    14:00 +20°C° 0,4 mm 3 m/s 619 mmHg 51%
    15:00 +20°C° 0,4 mm 3 m/s 619 mmHg 51%
    16:00 +19°C° 0,1 mm 3 m/s 619 mmHg 55%
    17:00 +18°C° 0,1 mm 2 m/s 619 mmHg 59%
    18:00 +17°C° 0,1 mm 2 m/s 619 mmHg 62%
    19:00 +16°C° 0 mm 2 m/s 618 mmHg 66%
    20:00 +14°C° 0 mm 2 m/s 618 mmHg 70%
    21:00 +13°C° 0 mm 1 m/s 618 mmHg 74%
    22:00 +13°C° 0 mm 1 m/s 618 mmHg 73%
    23:00 +12°C° 0 mm 1 m/s 618 mmHg 72%

    24 Août, Vendredi

    Heure Température Précipitation Vent Pression Humidité
    00:00 +12°C° 0 mm 1 m/s 618 mmHg 70%
    01:00 +12°C° 0 mm 1 m/s 617 mmHg 70%
    02:00 +12°C° 0 mm 1 m/s 617 mmHg 69%
    03:00 +11°C° 0 mm 1 m/s 617 mmHg 69%
    04:00 +12°C° 0 mm 1 m/s 617 mmHg 69%
    05:00 +12°C° 0 mm 1 m/s 618 mmHg 68%
    06:00 +12°C° 0 mm 1 m/s 618 mmHg 68%
    07:00 +14°C° 0 mm 2 m/s 619 mmHg 63%
    08:00 +16°C° 0 mm 2 m/s 619 mmHg 58%
    09:00 +18°C° 0 mm 3 m/s 620 mmHg 52%
    10:00 +19°C° 0 mm 3 m/s 620 mmHg 51%
    11:00 +20°C° 0 mm 3 m/s 620 mmHg 50%
    12:00 +21°C° 0 mm 4 m/s 620 mmHg 49%
    13:00 +20°C° 0 mm 4 m/s 620 mmHg 52%
    14:00 +20°C° 0 mm 4 m/s 620 mmHg 54%
    15:00 +19°C° 0 mm 4 m/s 619 mmHg 57%
    16:00 +18°C° 0 mm 4 m/s 619 mmHg 62%
    17:00 +17°C° 0 mm 3 m/s 619 mmHg 66%
    18:00 +16°C° 0 mm 3 m/s 618 mmHg 71%
    19:00 +14°C° 0 mm 3 m/s 618 mmHg 73%
    20:00 +14°C° 0 mm 2 m/s 618 mmHg 74%
    21:00 +12°C° 0 mm 2 m/s 617 mmHg 76%
    22:00 +12°C° 0 mm 2 m/s 617 mmHg 74%
    23:00 +12°C° 0 mm 2 m/s 617 mmHg 71%
    Voir plus